Satellite-Ground Cal/Val Site Overpasses Predictions

Prediction of Satellite NPP Overpassing Cal/Val Site: Antarctic Dome C

Ground Cal/Val Site Location: Latitude: -75.10, Longitude: 123.35; Satellite-Ground Site NADIR distance within 100 km.

Table of predicted overpasses for the next 14.0 days since TLE Epoch: 12/2/2023
Interval Starting Time Ending Time Minimum Distance Time Minimum Distance (km)
1 12/02/2023 07:38:20 12/02/2023 07:38:47 12/02/2023 07:38:33 37.01
2 12/03/2023 07:19:32 12/03/2023 07:19:52 12/03/2023 07:19:42 73.06
3 12/05/2023 15:01:45 12/05/2023 15:02:09 12/05/2023 15:01:57 57.83
4 12/06/2023 14:42:55 12/06/2023 14:43:20 12/06/2023 14:43:07 51.51
5 12/07/2023 07:44:35 12/07/2023 07:44:55 12/07/2023 07:44:45 71.96
6 12/08/2023 07:25:42 12/08/2023 07:26:09 12/08/2023 07:25:55 36.03
7 12/10/2023 15:08:06 12/10/2023 15:08:14 12/10/2023 15:08:10 95.19
8 12/11/2023 14:49:04 12/11/2023 14:49:33 12/11/2023 14:49:19 16.36
